[[{"header":{"parameterUnit":"m.s-1","parameterCategory":1,"la1":30.2991,"la2":30.254,"lo1":-89.0895,"lo2":-89.0444,"dy":0.0017,"dx":0.0017,"nx":28,"ny":28,"refTime":"2024-12-25T03:00:00:Z","depth":0,"parameterNumber":2,"parameterNumberName":"U-component_of_WINDS"},"data":[0,0,0,0,0,0,0,0,0,0,0,0,0,0,0,0,0,0,0,0,0,0,0,0,0,0,0,0,0,0,0,0,0,0,0,0,0,0,0,0,0,0,0,0,0,0,0,0,0,0,0,0,0,0,0,0,0,0,-6.3398,-6.3399,0,-6.3436,-6.3436,-6.3437,-6.3297,-6.3293,-6.3288,-6.3284,-6.3325,-6.333,-6.3335,0,0,0,0,0,0,0,0,0,0,0,0,0,-6.3209,-6.3213,-6.3398,-6.3399,-6.3399,-6.3436,-6.3436,-6.3437,-6.3297,-6.3292,-6.3287,-6.3283,-6.3324,-6.333,-6.3335,0,0,0,0,0,0,0,0,0,0,0,0,0,-6.3273,-6.3214,-6.3398,-6.3334,-6.3328,-6.3436,-6.3436,-6.3437,-6.3299,-6.3292,-6.3286,-6.328,-6.3322,-6.3329,-6.3336,-6.3508,0,0,-6.3359,-6.3362,0,0,0,0,0,0,0,0,-6.327,-6.328,-6.3343,-6.3338,-6.3333,-6.3355,-6.3384,-6.3461,-6.33,-6.331,-6.3284,-6.3277,-6.334,-6.3346,-6.3367,-6.3509,-6.3511,-6.336,-6.3364,-6.3367,-6.337,0,0,0,0,0,0,0,-6.3265,-6.3278,-6.3413,-6.3344,-6.3338,-6.3304,-6.3307,-6.3398,-6.336,-6.3309,-6.3299,-6.3305,-6.3336,-6.336,-6.3367,-6.3512,-6.336,-6.3366,-6.3371,-6.3374,-6.3798,-6.3805,0,0,0,0,0,0,-6.3269,-6.3275,-6.3412,-6.3414,-6.3285,-6.3313,-6.3315,-6.3354,-6.3358,-6.3353,-6.331,-6.3298,-6.335,-6.3358,-6.3368,-6.3568,-6.3367,-6.3374,-6.3379,-6.3791,-6.38,-6.3807,0,0,0,0,0,0,-6.3266,-6.3283,-6.341,-6.3342,-6.3356,-6.3323,-6.3368,-6.3358,-6.3381,-6.336,-6.3352,-6.3341,-6.3346,-6.3357,-6.3474,-6.3568,-6.3378,-6.3385,-6.3783,-6.3794,-6.3803,-6.3971,0,0,0,0,0,0,-6.3261,-6.3282,-6.3346,-6.3344,-6.336,-6.3515,-6.3373,-6.3364,-6.3394,-6.3379,-6.3387,-6.3382,-6.3342,-6.3464,-6.3481,-6.3575,-6.339,-6.3775,-6.3788,-6.38,-6.3957,-6.3986,-6.4011,0,0,0,0,0,-6.3254,-6.3392,-6.335,-6.3367,-6.3439,-6.3521,-6.353,-6.348,-6.3403,-6.3467,-6.3453,-6.3382,-6.3555,-6.3477,-6.3495,-6.3592,-6.3768,-6.3784,-6.3799,-6.3945,-6.398,-6.401,0,0,0,0,0,0,-6.3405,-6.339,-6.3343,-6.3484,-6.3505,-6.3497,-6.3576,-6.3519,-6.3562,-6.3546,-6.3483,-6.3486,-6.3614,-6.3615,-6.3528,-6.3759,-6.3649,-6.3668,-6.3753,-6.3787,-6.3813,-6.3809,-6.3397,0,0,0,0,0,-6.3455,-6.3522,-6.3506,-6.3632,-6.3645,-6.361,-6.3643,-6.3604,-6.3623,-6.3631,-6.3625,-6.3647,-6.3706,-6.3747,-6.38,-6.3958,-6.3957,-6.4034,-6.4061,-6.4083,-6.41,-6.4184,-6.4218,-6.3857,-6.3857,-6.3857,0,0,-6.3558,-6.3559,-6.3605,-6.3663,-6.3673,-6.3745,-6.3618,-6.3699,-6.3752,-6.3643,-6.3752,-6.375,-6.377,-6.3909,-6.3969,-6.3913,-6.42,-6.4102,-6.412,-6.4125,-6.4203,-6.4237,-6.4268,-6.3868,-6.3866,-6.3864,0,0,-6.3783,-6.379,-6.3895,-6.391,-6.3928,-6.3904,-6.3931,-6.3932,-6.3926,-6.4035,-6.3955,-6.4018,-6.4122,-6.414,-6.4162,-6.4397,-6.4333,-6.4417,-6.4555,-6.4638,-6.4666,-6.4691,-6.4775,-6.4805,-6.4434,-6.4435,-6.4435,0,-6.3908,-6.4012,-6.3957,-6.4044,-6.4072,-6.3978,-6.4086,-6.4102,-6.4138,-6.416,-6.4097,-6.4226,-6.4233,-6.4374,-6.4432,-6.4454,-6.4482,-6.4414,-6.4667,-6.4691,-6.4713,-6.4792,-6.4824,-6.4445,-6.4444,-6.4443,-6.4442,0,-6.4166,-6.424,-6.4324,-6.436,-6.4398,-6.4495,-6.4456,-6.4501,-6.446,-6.4443,-6.4556,-6.4562,-6.4615,-6.4646,-6.4606,-6.4782,-6.4747,-6.4677,-6.4564,-6.4759,-6.4832,-6.4861,-6.4459,-6.4456,-6.4453,-6.445,0,0,-6.4483,-6.449,-6.4522,-6.4538,-6.4553,-6.4609,-6.4703,-6.4755,-6.4795,-6.4824,-6.4901,-6.4992,-6.4928,-6.4954,-6.4915,-6.4988,-6.5174,-6.4909,-6.4908,-6.4957,-6.5369,-6.542,-6.5456,-6.5132,-6.5138,-6.5142,-6.5367,0,-6.4703,-6.4862,-6.4816,-6.4976,-6.5044,-6.4957,-6.5039,-6.5058,-6.5046,-6.5103,-6.5089,-6.5155,-6.5065,-6.508,-6.5148,-6.5137,-6.5255,-6.512,-6.5204,-6.5207,-6.5199,-6.5494,-6.5548,-6.576,-6.5395,-6.54,-6.5403,0,-6.4979,-6.5019,-6.5185,-6.519,-6.5217,-6.5291,-6.5336,-6.5391,-6.5412,-6.5398,-6.5429,-6.5376,-6.547,-6.5359,-6.5487,-6.5396,-6.5428,-6.5429,-6.5436,-6.544,-6.5316,-6.5505,-6.5826,-6.5857,-6.5448,-6.5444,-6.5441,0,-6.5193,-6.5288,-6.54,-6.5417,-6.5426,-6.548,-6.5487,-6.5501,-6.5536,-6.5576,-6.5597,-6.5649,-6.5676,-6.5717,-6.568,-6.5603,-6.5815,-6.57,-6.5806,-6.5807,-6.5852,-6.585,-6.6181,-6.5877,-6.5876,-6.5876,-6.5875,0,-6.5441,-6.5546,-6.5496,-6.5565,-6.5681,-6.5629,-6.5746,-6.5742,-6.5757,-6.5824,-6.5753,-6.5818,-6.5766,-6.5827,-6.58,-6.591,-6.5924,-6.5915,-6.5906,-6.5921,-6.5922,-6.5939,-6.5923,-6.5884,-6.5882,-6.588,-6.5879,0,-6.5698,-6.5669,-6.5785,-6.5785,-6.5788,-6.5873,-6.5873,-6.5937,-6.5921,-6.6008,-6.6025,-6.6,-6.6068,-6.6036,-6.6108,-6.6089,-6.6232,-6.6204,-6.6224,-6.6216,-6.6323,-6.6313,-6.6676,-6.6721,-6.639,-6.6393,-6.6395,0,-6.5857,-6.5936,-6.5945,-6.5985,-6.5996,-6.6062,-6.6097,-6.6051,-6.609,-6.6121,-6.6182,-6.6245,-6.6291,-6.6405,-6.6394,-6.6449,-6.6421,-6.6545,-6.6429,-6.6441,-6.6422,-6.6417,-6.6424,-6.6567,-6.6571,-6.6574,-6.6577,0,-6.6143,-6.6125,-6.6178,-6.6228,-6.6272,-6.6309,-6.6339,-6.6376,-6.6331,-6.638,-6.6449,-6.6486,-6.6559,-6.6622,-6.6671,-6.6678,-6.6621,-6.6614,-6.6641,-6.6655,-6.6663,-6.6659,-6.6286,-6.6605,-6.6602,-6.66,-6.6599,-6.6598,-6.6355,-6.6421,-6.6438,-6.65,-6.6519,-6.655,-6.661,-6.6602,-6.6659,-6.6714,-6.6685,-6.6765,-6.6786,-6.6845,-6.6861,-6.6924,-6.6875,-6.6915,-6.6925,-6.6935,-6.6948,-6.6656,-6.6933,-6.6933,-6.6932,-6.6931,-6.693,0,-6.6635,-6.6643,-6.6701,-6.6746,-6.6796,-6.6738,-6.677,-6.6815,-6.6887,-6.6911,-6.6959,-6.704,-6.7101,-6.7096,-6.7153,-6.7204,-6.7179,-6.7221,-6.7215,-6.7218,-6.6989,-6.696,-6.724,-6.724,-6.724,-6.724,-6.724,-6.724,-6.6787,-6.6896,-6.6881,-6.7,-6.7006,-6.7085,-6.7108,-6.7136,-6.7155,-6.7248,-6.7299,-6.7295,-6.7308,-6.7366,-6.742,-6.7417,-6.744,-6.7492,-6.7479,-6.7265,-6.7234,-6.7205,-6.7176,-6.7498,-6.7498,-6.7702,-6.7704,-6.7705]},{"header":{"parameterUnit":"m.s-1","parameterCategory":1,"la1":30.2991,"la2":30.254,"lo1":-89.0895,"lo2":-89.0444,"dy":0.0017,"dx":0.0017,"nx":28,"ny":28,"refTime":"2024-12-25T03:00:00:Z","depth":0,"parameterNumber":3,"parameterNumberName":"V-component_of_WINDS"},"data":[0,0,0,0,0,0,0,0,0,0,0,0,0,0,0,0,0,0,0,0,0,0,0,0,0,0,0,0,0,0,0,0,0,0,0,0,0,0,0,0,0,0,0,0,0,0,0,0,0,0,0,0,0,0,0,0,0,0,-0.3276,-0.3275,0,-0.3261,-0.3261,-0.3261,-0.3239,-0.3239,-0.3238,-0.3238,-0.3224,-0.3224,-0.3224,0,0,0,0,0,0,0,0,0,0,0,0,0,-0.3284,-0.3284,-0.3276,-0.3275,-0.3275,-0.3261,-0.3261,-0.3261,-0.3239,-0.3239,-0.3238,-0.3238,-0.3224,-0.3224,-0.3224,0,0,0,0,0,0,0,0,0,0,0,0,0,-0.3276,-0.3284,-0.3276,-0.3263,-0.3261,-0.3261,-0.3261,-0.3261,-0.3239,-0.3239,-0.3238,-0.3238,-0.3224,-0.3224,-0.3224,-0.3236,0,0,-0.3224,-0.3224,0,0,0,0,0,0,0,0,-0.3276,-0.3276,-0.3265,-0.3264,-0.3262,-0.3251,-0.3259,-0.3252,-0.3239,-0.3248,-0.3238,-0.3237,-0.3234,-0.3233,-0.3232,-0.3235,-0.3235,-0.3224,-0.3224,-0.3224,-0.3224,0,0,0,0,0,0,0,-0.3277,-0.3276,-0.327,-0.3265,-0.3263,-0.3257,-0.3256,-0.3257,-0.3244,-0.3247,-0.3245,-0.3244,-0.3233,-0.3232,-0.3231,-0.3234,-0.3224,-0.3224,-0.3224,-0.3224,-0.3244,-0.3245,0,0,0,0,0,0,-0.3279,-0.3277,-0.327,-0.3269,-0.3268,-0.3258,-0.3256,-0.3255,-0.3244,-0.3242,-0.3244,-0.3243,-0.3232,-0.3231,-0.3231,-0.3242,-0.3224,-0.3224,-0.3224,-0.3244,-0.3244,-0.3245,0,0,0,0,0,0,-0.328,-0.3279,-0.3271,-0.3273,-0.3271,-0.3258,-0.3258,-0.3255,-0.3254,-0.3242,-0.324,-0.3245,-0.3232,-0.3231,-0.3234,-0.3241,-0.3224,-0.3224,-0.3243,-0.3244,-0.3245,-0.3265,0,0,0,0,0,0,-0.328,-0.3279,-0.3284,-0.3273,-0.3271,-0.3275,-0.3258,-0.3255,-0.3254,-0.3252,-0.3243,-0.324,-0.3231,-0.3234,-0.3234,-0.3241,-0.3224,-0.3242,-0.3243,-0.3244,-0.3264,-0.3267,-0.3269,0,0,0,0,0,-0.328,-0.3291,-0.3284,-0.3284,-0.3277,-0.3275,-0.3274,-0.3263,-0.3255,-0.3259,-0.3251,-0.3241,-0.324,-0.3235,-0.3234,-0.3241,-0.3242,-0.3243,-0.3244,-0.3263,-0.3266,-0.3269,0,0,0,0,0,0,-0.3305,-0.329,-0.3282,-0.3289,-0.3284,-0.3272,-0.3277,-0.3267,-0.3264,-0.3262,-0.3249,-0.3247,-0.3251,-0.3247,-0.3241,-0.325,-0.3239,-0.3241,-0.3253,-0.3257,-0.3259,-0.326,-0.3224,0,0,0,0,0,-0.3311,-0.3311,-0.3298,-0.3306,-0.3303,-0.329,-0.3289,-0.3281,-0.3274,-0.3272,-0.3265,-0.3259,-0.3257,-0.3257,-0.3255,-0.3263,-0.326,-0.3267,-0.327,-0.3272,-0.3273,-0.3275,-0.3278,-0.3249,-0.3249,-0.3249,0,0,-0.3324,-0.3315,-0.3317,-0.331,-0.3305,-0.3305,-0.3289,-0.329,-0.329,-0.3273,-0.3275,-0.3269,-0.3262,-0.3267,-0.3269,-0.3263,-0.328,-0.3273,-0.3275,-0.3275,-0.3276,-0.3279,-0.3282,-0.325,-0.3249,-0.3249,0,0,-0.3347,-0.3341,-0.3346,-0.334,-0.3331,-0.3323,-0.3324,-0.3313,-0.3308,-0.3309,-0.3296,-0.3295,-0.3293,-0.3288,-0.3285,-0.3303,-0.3293,-0.3303,-0.3316,-0.3318,-0.3321,-0.3323,-0.3328,-0.333,-0.3304,-0.3304,-0.3304,0,-0.3364,-0.3363,-0.335,-0.3351,-0.3348,-0.3331,-0.3335,-0.3331,-0.3322,-0.332,-0.3313,-0.3309,-0.3303,-0.3306,-0.331,-0.3308,-0.3308,-0.3304,-0.3321,-0.3323,-0.3325,-0.333,-0.3332,-0.3305,-0.3305,-0.3305,-0.3305,0,-0.3384,-0.3384,-0.3389,-0.3379,-0.3377,-0.338,-0.3366,-0.3365,-0.3356,-0.3347,-0.3348,-0.334,-0.3335,-0.3335,-0.3327,-0.3336,-0.3333,-0.3324,-0.3312,-0.3329,-0.3333,-0.3335,-0.3307,-0.3306,-0.3306,-0.3306,0,0,-0.3424,-0.3405,-0.3407,-0.3401,-0.339,-0.3389,-0.339,-0.3384,-0.3383,-0.3377,-0.3377,-0.3375,-0.3365,-0.3362,-0.3353,-0.3355,-0.3368,-0.3346,-0.3345,-0.3349,-0.3376,-0.3382,-0.3384,-0.3361,-0.3361,-0.3362,-0.3376,0,-0.3444,-0.3445,-0.3432,-0.3436,-0.3435,-0.3417,-0.3418,-0.3411,-0.3402,-0.3399,-0.339,-0.3388,-0.3377,-0.3374,-0.3375,-0.3366,-0.3373,-0.3365,-0.3361,-0.3361,-0.3363,-0.3387,-0.3394,-0.3408,-0.3378,-0.3378,-0.3378,0,-0.3469,-0.3462,-0.3466,-0.3452,-0.3451,-0.3452,-0.3444,-0.3442,-0.3432,-0.3426,-0.3421,-0.3409,-0.3409,-0.3398,-0.3396,-0.3391,-0.3388,-0.3383,-0.3383,-0.3382,-0.337,-0.3386,-0.3412,-0.3414,-0.3381,-0.3381,-0.338,0,-0.3496,-0.3488,-0.3489,-0.3485,-0.3469,-0.3469,-0.3463,-0.3452,-0.3449,-0.3442,-0.3439,-0.3433,-0.343,-0.3425,-0.3412,-0.3405,-0.3411,-0.3399,-0.3405,-0.3406,-0.3408,-0.3408,-0.3434,-0.3407,-0.3407,-0.3407,-0.3407,0,-0.352,-0.3522,-0.3501,-0.3501,-0.3503,-0.3487,-0.349,-0.3481,-0.3472,-0.347,-0.3455,-0.3453,-0.3436,-0.3433,-0.3422,-0.3422,-0.3421,-0.3415,-0.3412,-0.3416,-0.3417,-0.3414,-0.3413,-0.3407,-0.3407,-0.3407,-0.3407,0,-0.355,-0.3536,-0.3536,-0.3519,-0.3515,-0.3517,-0.3503,-0.3502,-0.3492,-0.3489,-0.3488,-0.3472,-0.3467,-0.3453,-0.3445,-0.3438,-0.344,-0.3435,-0.3443,-0.3441,-0.3447,-0.3446,-0.3472,-0.3474,-0.3447,-0.3447,-0.3447,0,-0.3567,-0.3568,-0.3551,-0.3548,-0.3541,-0.3537,-0.3533,-0.3517,-0.3513,-0.35,-0.3501,-0.3494,-0.3488,-0.348,-0.3468,-0.3461,-0.3455,-0.3465,-0.3454,-0.3458,-0.3454,-0.3454,-0.3454,-0.3467,-0.3468,-0.3468,-0.3468,0,-0.3596,-0.3588,-0.3582,-0.3574,-0.3568,-0.3561,-0.3553,-0.3551,-0.3533,-0.3529,-0.3523,-0.3518,-0.3508,-0.3501,-0.3491,-0.3484,-0.3473,-0.3471,-0.3472,-0.3476,-0.348,-0.3477,-0.3448,-0.3471,-0.3471,-0.347,-0.347,-0.347,-0.3619,-0.3619,-0.3606,-0.36,-0.3591,-0.3583,-0.3581,-0.357,-0.3564,-0.3554,-0.3544,-0.3539,-0.3527,-0.3513,-0.3506,-0.3501,-0.3496,-0.3497,-0.3498,-0.3498,-0.3499,-0.3481,-0.35,-0.35,-0.35,-0.35,-0.3499,0,-0.3647,-0.3637,-0.3631,-0.3619,-0.3614,-0.3602,-0.3592,-0.3588,-0.3583,-0.3573,-0.3566,-0.3558,-0.355,-0.3537,-0.3528,-0.3526,-0.3521,-0.3525,-0.3524,-0.3523,-0.3505,-0.3505,-0.3529,-0.3529,-0.3529,-0.3529,-0.3529,-0.3529,-0.3661,-0.3659,-0.3649,-0.3642,-0.3633,-0.3626,-0.3621,-0.3613,-0.3604,-0.3596,-0.3589,-0.358,-0.3568,-0.3557,-0.355,-0.3546,-0.3543,-0.3548,-0.3543,-0.3527,-0.3524,-0.3522,-0.3521,-0.3548,-0.3548,-0.356,-0.356,-0.356]}]]